• In Czech Republic
  • List of Countries
  • For 7 days
  • Water Temperature
  • Satellite Maps
  • Weather Map
  • Weather Widgets
  • user-avatar
    Login

    Hourly Weather Logovo

    Today, 16 July, Monday

    Time Temperature Precipitation Wind Pressure Humidity
    00:00 +19°C° 0 mm 2 mps 739 mmHg 96%
    01:00 +18°C° 0 mm 2 mps 739 mmHg 96%
    02:00 +18°C° 0 mm 2 mps 739 mmHg 97%
    03:00 +18°C° 0 mm 2 mps 739 mmHg 97%
    04:00 +18°C° 0 mm 3 mps 739 mmHg 97%
    05:00 +18°C° 0 mm 3 mps 739 mmHg 96%
    06:00 +20°C° 0.1 mm 3 mps 739 mmHg 93%
    07:00 +21°C° 0.1 mm 3 mps 739 mmHg 89%
    08:00 +23°C° 0.1 mm 4 mps 739 mmHg 85%
    09:00 +23°C° 0.7 mm 4 mps 739 mmHg 82%
    10:00 +25°C° 0.7 mm 4 mps 739 mmHg 80%
    11:00 +26°C° 0.7 mm 5 mps 739 mmHg 77%
    12:00 +27°C° 0.3 mm 5 mps 739 mmHg 74%
    13:00 +27°C° 0.3 mm 4 mps 739 mmHg 71%
    14:00 +28°C° 0.3 mm 4 mps 739 mmHg 68%
    15:00 +27°C° 0.3 mm 4 mps 738 mmHg 70%
    16:00 +27°C° 0.3 mm 4 mps 738 mmHg 73%
    17:00 +26°C° 0.3 mm 4 mps 738 mmHg 76%
    18:00 +25°C° 0.2 mm 4 mps 738 mmHg 80%
    19:00 +23°C° 0.2 mm 4 mps 738 mmHg 84%
    20:00 +21°C° 0.2 mm 3 mps 738 mmHg 89%
    21:00 +21°C° 0 mm 3 mps 738 mmHg 89%
    22:00 +20°C° 0 mm 3 mps 738 mmHg 89%
    23:00 +20°C° 0 mm 3 mps 738 mmHg 90%

    Tomorrow, 17 July, Tuesday

    Time Temperature Precipitation Wind Pressure Humidity
    00:00 +20°C° 0 mm 3 mps 738 mmHg 91%
    01:00 +19°C° 0 mm 3 mps 738 mmHg 91%
    02:00 +19°C° 0 mm 3 mps 738 mmHg 92%
    03:00 +19°C° 0 mm 4 mps 738 mmHg 92%
    04:00 +19°C° 0 mm 4 mps 738 mmHg 91%
    05:00 +19°C° 0 mm 4 mps 738 mmHg 91%
    06:00 +21°C° 0 mm 4 mps 738 mmHg 86%
    07:00 +22°C° 0 mm 5 mps 737 mmHg 81%
    08:00 +25°C° 0 mm 5 mps 737 mmHg 76%
    09:00 +26°C° 0 mm 6 mps 737 mmHg 71%
    10:00 +27°C° 0 mm 6 mps 737 mmHg 66%
    11:00 +28°C° 0 mm 6 mps 737 mmHg 62%
    12:00 +28°C° 0 mm 6 mps 737 mmHg 62%
    13:00 +28°C° 0 mm 6 mps 736 mmHg 62%
    14:00 +29°C° 0 mm 6 mps 736 mmHg 62%
    15:00 +28°C° 0.4 mm 6 mps 736 mmHg 68%
    16:00 +27°C° 0.4 mm 5 mps 736 mmHg 73%
    17:00 +26°C° 0.4 mm 5 mps 736 mmHg 79%
    18:00 +25°C° 0.2 mm 5 mps 736 mmHg 82%
    19:00 +23°C° 0.2 mm 4 mps 736 mmHg 86%
    20:00 +22°C° 0.2 mm 4 mps 736 mmHg 89%
    21:00 +22°C° 0 mm 4 mps 735 mmHg 90%
    22:00 +21°C° 0 mm 4 mps 735 mmHg 91%
    23:00 +21°C° 0 mm 4 mps 735 mmHg 93%

    Day after tomorrow, 18 July, Wednesday

    Time Temperature Precipitation Wind Pressure Humidity
    00:00 +20°C° 0 mm 4 mps 735 mmHg 94%
    01:00 +20°C° 0 mm 4 mps 735 mmHg 95%
    02:00 +20°C° 0 mm 4 mps 735 mmHg 97%
    03:00 +20°C° 0 mm 4 mps 735 mmHg 96%
    04:00 +20°C° 0 mm 4 mps 735 mmHg 95%
    05:00 +20°C° 0 mm 4 mps 735 mmHg 94%
    06:00 +21°C° 0 mm 5 mps 735 mmHg 92%
    07:00 +21°C° 0 mm 5 mps 735 mmHg 90%
    08:00 +22°C° 0 mm 5 mps 735 mmHg 87%
    09:00 +23°C° 0 mm 5 mps 735 mmHg 80%
    10:00 +24°C° 0 mm 6 mps 735 mmHg 73%
    11:00 +27°C° 0 mm 6 mps 735 mmHg 67%
    12:00 +27°C° 0.2 mm 6 mps 735 mmHg 67%
    13:00 +27°C° 0.2 mm 6 mps 735 mmHg 68%
    14:00 +27°C° 0.2 mm 6 mps 735 mmHg 68%
    15:00 +26°C° 0.5 mm 5 mps 735 mmHg 74%
    16:00 +25°C° 0.5 mm 5 mps 735 mmHg 81%
    17:00 +23°C° 0.5 mm 5 mps 735 mmHg 87%
    18:00 +22°C° 0.1 mm 4 mps 735 mmHg 88%
    19:00 +21°C° 0.1 mm 4 mps 735 mmHg 90%
    20:00 +20°C° 0.1 mm 4 mps 735 mmHg 91%
    21:00 +20°C° 0 mm 4 mps 735 mmHg 92%
    22:00 +19°C° 0 mm 4 mps 735 mmHg 93%
    23:00 +19°C° 0 mm 4 mps 735 mmHg 94%

    19 July, Thursday

    Time Temperature Precipitation Wind Pressure Humidity
    00:00 +19°C° 0.1 mm 4 mps 735 mmHg 94%
    01:00 +19°C° 0.1 mm 4 mps 735 mmHg 94%
    02:00 +19°C° 0.1 mm 4 mps 735 mmHg 95%
    03:00 +19°C° 0.1 mm 4 mps 735 mmHg 95%
    04:00 +18°C° 0.1 mm 4 mps 735 mmHg 95%
    05:00 +18°C° 0.1 mm 4 mps 735 mmHg 96%
    06:00 +17°C° 0.2 mm 5 mps 735 mmHg 96%
    07:00 +19°C° 0.2 mm 5 mps 735 mmHg 96%
    08:00 +19°C° 0.2 mm 5 mps 735 mmHg 96%
    09:00 +19°C° 0.2 mm 4 mps 735 mmHg 95%
    10:00 +20°C° 0.2 mm 4 mps 735 mmHg 93%
    11:00 +20°C° 0.2 mm 4 mps 735 mmHg 92%
    12:00 +21°C° 0.4 mm 4 mps 735 mmHg 90%
    13:00 +22°C° 0.4 mm 4 mps 735 mmHg 87%
    14:00 +23°C° 0.4 mm 4 mps 735 mmHg 85%
    15:00 +24°C° 0.4 mm 3 mps 735 mmHg 86%
    16:00 +24°C° 0.4 mm 3 mps 735 mmHg 86%
    17:00 +24°C° 0.4 mm 3 mps 735 mmHg 87%
    18:00 +22°C° 0.8 mm 3 mps 735 mmHg 89%
    19:00 +21°C° 0.8 mm 3 mps 735 mmHg 92%
    20:00 +21°C° 0.8 mm 3 mps 735 mmHg 94%
    21:00 +20°C° 0.5 mm 2 mps 735 mmHg 95%
    22:00 +20°C° 0.5 mm 2 mps 735 mmHg 96%
    23:00 +19°C° 0.5 mm 2 mps 735 mmHg 97%

    20 July, Friday

    Time Temperature Precipitation Wind Pressure Humidity
    00:00 +19°C° 0.2 mm 2 mps 735 mmHg 98%
    01:00 +19°C° 0.2 mm 2 mps 735 mmHg 98%
    02:00 +18°C° 0.2 mm 2 mps 735 mmHg 98%
    03:00 +18°C° 0 mm 2 mps 735 mmHg 98%
    04:00 +18°C° 0 mm 2 mps 735 mmHg 98%
    05:00 +19°C° 0 mm 2 mps 735 mmHg 98%
    06:00 +20°C° 0 mm 2 mps 736 mmHg 95%
    07:00 +21°C° 0 mm 2 mps 736 mmHg 91%
    08:00 +22°C° 0 mm 3 mps 736 mmHg 88%
    09:00 +24°C° 0.6 mm 3 mps 736 mmHg 86%
    10:00 +24°C° 0.6 mm 2 mps 736 mmHg 84%
    11:00 +25°C° 0.6 mm 2 mps 736 mmHg 82%
    12:00 +25°C° 1.9 mm 2 mps 735 mmHg 82%
    13:00 +26°C° 1.9 mm 2 mps 735 mmHg 83%
    14:00 +26°C° 1.9 mm 2 mps 735 mmHg 83%
    15:00 +26°C° 1.8 mm 2 mps 735 mmHg 84%
    16:00 +25°C° 1.8 mm 2 mps 735 mmHg 86%
    17:00 +25°C° 1.8 mm 3 mps 735 mmHg 87%
    18:00 +24°C° 0.2 mm 2 mps 735 mmHg 90%
    19:00 +23°C° 0.2 mm 2 mps 735 mmHg 93%
    20:00 +21°C° 0.2 mm 2 mps 735 mmHg 96%
    21:00 +21°C° 0.3 mm 2 mps 735 mmHg 97%
    22:00 +20°C° 0.3 mm 2 mps 735 mmHg 97%
    23:00 +20°C° 0.3 mm 1 mps 735 mmHg 98%

    21 July, Saturday

    Time Temperature Precipitation Wind Pressure Humidity
    00:00 +20°C° 0 mm 1 mps 735 mmHg 98%
    01:00 +20°C° 0 mm 1 mps 735 mmHg 98%
    02:00 +19°C° 0 mm 1 mps 735 mmHg 98%
    03:00 +20°C° 0.1 mm 1 mps 736 mmHg 98%
    04:00 +20°C° 0.1 mm 1 mps 736 mmHg 98%
    05:00 +20°C° 0.1 mm 1 mps 736 mmHg 98%
    06:00 +21°C° 0 mm 1 mps 736 mmHg 95%
    07:00 +22°C° 0 mm 1 mps 736 mmHg 93%
    08:00 +23°C° 0 mm 1 mps 736 mmHg 91%
    09:00 +24°C° 0.5 mm 1 mps 736 mmHg 88%
    10:00 +25°C° 0.5 mm 1 mps 736 mmHg 86%
    11:00 +25°C° 0.5 mm 1 mps 736 mmHg 84%
    12:00 +26°C° 0.8 mm 1 mps 736 mmHg 81%
    13:00 +26°C° 0.8 mm 1 mps 736 mmHg 79%
    14:00 +27°C° 0.8 mm 2 mps 736 mmHg 76%
    15:00 +27°C° 1 mm 2 mps 736 mmHg 80%
    16:00 +26°C° 1 mm 2 mps 736 mmHg 83%
    17:00 +26°C° 1 mm 2 mps 736 mmHg 86%
    18:00 +25°C° 0.5 mm 2 mps 736 mmHg 89%
    19:00 +24°C° 0.5 mm 2 mps 736 mmHg 92%
    20:00 +23°C° 0.5 mm 2 mps 736 mmHg 95%
    21:00 +21°C° 0.3 mm 2 mps 736 mmHg 96%
    22:00 +20°C° 0.3 mm 2 mps 736 mmHg 96%
    23:00 +20°C° 0.3 mm 2 mps 737 mmHg 97%
    Show more